Volver al catálogo

STARLINK-32133

ActivoComunicacionesVLEO
NORAD 60333·PAYLOAD·🇺🇸 United States

Lanzado Aug 2, 2024 desde Cape Canaveral Space Force Station

Loading…

Próximos Pases (próximas 24 horas)

TLE

ActualizadoSource: CelesTrak SupGP

Época: Sep 14, 2026, 22:16 UTC

1 60333C 24136E   26257.92826389  .00054095  00000+0  15992-2 0  2577
2 60333  53.1571 275.5040 0001135  89.8900 296.2203 15.34344359    12

Sigue STARLINK-32133 en tiempo real con AllMySat

Download on the App Store